Station LPNM4 - 9075065 - Alpena, MI Image indicating link to RSS feed of recent meteorological observations for station LPNM4


Conditions at LPNM4 as of
(1:00 pm EDT)
1700 GMT on 04/15/2024:
     

Click on the graph icon in the table below to see a time series plot of the last five days of that observation.

5-day plot - Wind Direction Wind Direction (WDIR):NNW ( 330 deg true )
5-day plot - Wind Speed Wind Speed (WSPD): 7.0 kts
5-day plot - Wind Gust Wind Gust (GST): 13.0 kts
5-day plot - Atmospheric Pressure Atmospheric Pressure (PRES):29.91 in
5-day plot - Pressure Tendency Pressure Tendency (PTDY):+0.00 in ( Steady )
5-day plot - Air Temperature Air Temperature (ATMP): 58.5 °F
5-day plot - Water Temperature Water Temperature (WTMP): 46.4 °F
5-day plot - Dew Point Dew Point (DEWP): 34.9 °F
5-day plot - Wind Speed at 10 Meters Wind Speed at 10 meters (WSPD10M): 7.8 kts
5-day plot - Wind Speed at 20 Meters Wind Speed at 20 meters (WSPD20M): 7.8 kts
5-day plot -  Wind Speed, Wind Gust and Atmospheric Pressure Combined plot of Wind Speed, Gust, and Air Pressure
NOS Water Level Observation Network Water Level
Previous observations
TIME
(EDT)
5-day plot - Wind Direction
WDIR
 
5-day plot - Wind Speed
WSPD
kts
5-day plot - Wind Gust
GST
kts
5-day plot - Wave Height
WVHT
ft
5-day plot - Dominant Wave Period
DPD
sec
5-day plot - Average Wave Period
APD
sec
5-day plot - Mean Wave Direction
MWD
 
5-day plot - Atmospheric Pressure
PRES
in
5-day plot - Pressure Tendency
PTDY
in
5-day plot - Air Temperature
ATMP
°F
5-day plot - Water Temperature
WTMP
°F
5-day plot - Dew Point
DEWP
°F
5-day plot - Salinity
SAL
psu
5-day plot - Visibility
VIS
nmi
5-day plot - Tide (above MLLW)
TIDE
ft
2024-04-15 12:54 pmNNW 8.0 12.0----29.91- 57.7 46.4 34.5---
2024-04-15 12:48 pmNNW 8.0 12.0----29.91- 58.1 46.4 35.2---
2024-04-15 12:42 pmNNW 7.0 14.0----29.91- 58.3 46.4 35.2---
2024-04-15 12:36 pmNNW 6.0 15.9----29.91- 57.9 46.4 34.9---
2024-04-15 12:30 pm NW 7.0 11.1----29.91- 56.8 46.4 34.9---
2024-04-15 12:24 pmNNW 8.9 12.0----29.91- 57.0 46.4 34.5---
2024-04-15 12:18 pm NW 7.0 11.1----29.91- 56.8 46.4 36.1---
2024-04-15 12:12 pm NW 7.0 12.0----29.91- 56.7 46.6 36.0---
2024-04-15 12:06 pm NW 8.0 11.1----29.91- 56.8 46.6 36.5---
2024-04-15 12:00 pmNNW 8.0 13.0----29.91+0.00 56.1 46.6 36.0---
2024-04-15 11:54 am W 7.0 12.0----29.91- 55.9 46.6 36.1---
2024-04-15 11:48 amNNW 8.0 12.0----29.91- 56.1 46.4 36.5---
2024-04-15 11:42 amNNW 6.0 11.1----29.91- 55.9 46.4 36.5---
2024-04-15 11:36 am NW 6.0 12.0----29.91- 55.2 46.4 36.5---
2024-04-15 11:30 am NW 8.9 13.0----29.91- 55.2 46.4 36.5---
2024-04-15 11:24 amNNW 8.9 14.0----29.91- 54.7 46.4 35.8---
2024-04-15 11:18 am N 8.9 12.0----29.91- 54.5 46.4 36.3---
2024-04-15 11:12 amNNW 6.0 12.0----29.91- 54.5 46.4 36.7---
2024-04-15 11:06 amNNW 6.0 12.0----29.91- 54.3 46.4 36.7---
2024-04-15 11:00 amNNW 6.0 11.1----29.91+0.02 54.1 46.4 36.7---
2024-04-15 10:54 amNNW 8.0 11.1----29.91- 53.6 46.4 36.5---
2024-04-15 10:48 am NW 7.0 13.0----29.91- 52.9 46.4 36.5---
2024-04-15 10:42 am NW 7.0 9.9----29.91- 53.2 46.4 36.5---
2024-04-15 10:36 amNNW 7.0 9.9----29.91- 52.9 46.4 36.9---
2024-04-15 10:30 am NW 6.0 9.9----29.90-- 46.6----
2024-04-15 10:24 am NW 5.1 8.0----29.90-- 46.6----
2024-04-15 10:18 amNNW 7.0 9.9----29.91- 52.2 46.6 36.0---
2024-04-15 10:12 amNNW 5.1 9.9----29.91- 52.2 46.6 36.3---
2024-04-15 10:06 amNNW 5.1 8.0----29.91- 51.3 46.6 36.5---
2024-04-15 10:00 am NW 5.1 7.0----29.91+0.04 51.4 46.4 36.5---
2024-04-15 09:54 amNNW 5.1 7.0----29.91- 50.7 46.4 37.0---
2024-04-15 09:48 am NW 5.1 8.0----29.91- 50.2 46.4 36.7---
2024-04-15 09:42 am NW 4.1 7.0----29.91- 50.2 46.4 37.6---
2024-04-15 09:36 amNNW 5.1 9.9----29.91- 49.3 46.4 36.7---
2024-04-15 09:30 amNNW 5.1 7.0----29.91- 49.1 46.4 37.0---
2024-04-15 09:24 am NW 5.1 7.0----29.91- 48.2 46.4 36.9---
2024-04-15 09:18 am NW 5.1 7.0----29.91- 47.8 46.4 36.9---
2024-04-15 09:12 amNNW 4.1 7.0----29.91- 47.5 46.4 37.2---
2024-04-15 09:06 am NW 2.9 7.0----29.91- 46.8 46.4 37.2---
2024-04-15 09:00 am NW 5.1 7.0----29.91+0.06 46.0 46.4 37.2---
2024-04-15 08:54 am NW 5.1 8.0----29.91- 45.3 46.4 36.7---
2024-04-15 08:48 amWNW 5.1 6.0----29.91- 45.0 46.4 36.9---
2024-04-15 08:42 amWNW 5.1 7.0----29.91- 44.4 46.4 36.7---
2024-04-15 08:36 amWNW 4.1 8.0----29.90- 43.9 46.4 36.7---
2024-04-15 08:30 am NW 5.1 7.0----29.90- 43.5 46.4 36.5---
2024-04-15 08:24 amWNW 5.1 5.1----29.90- 43.3 46.4 36.9---
2024-04-15 08:18 am NW 4.1 6.0----29.90- 43.0 46.4 37.0---
2024-04-15 08:12 am NW 5.1 8.0----29.90- 42.3 46.4 36.7---
2024-04-15 08:06 amWNW 5.1 7.0----29.89- 41.9 46.4 36.5---
2024-04-15 08:00 am NW 2.9 6.0----29.89+0.06 41.5 46.4 36.7---
2024-04-15 07:54 am NW 4.1 6.0----29.89- 41.0 46.4 36.3---
2024-04-15 07:48 am NW 4.1 6.0----29.89- 40.8 46.4 36.3---
2024-04-15 07:42 am NW 4.1 6.0----29.88- 40.5 46.4 36.1---
2024-04-15 07:36 am NW 5.1 6.0----29.88- 40.3 46.4 36.3---
2024-04-15 07:30 am NW 2.9 4.1----29.88- 39.9 46.4 36.1---
2024-04-15 07:24 amNNW 1.9 4.1----29.88- 39.7 46.4 36.1---
2024-04-15 07:18 am NW 2.9 5.1----29.88- 39.4 46.4 36.0---
2024-04-15 07:12 amNNW 1.9 5.1----29.87- 39.4 46.4 36.0---
2024-04-15 07:06 am NW 4.1 6.0----29.87- 39.4 46.4 36.0---
2024-04-15 07:00 amNNW 4.1 6.0----29.87+0.05 39.2 46.4 35.8---
2024-04-15 06:54 am NW 4.1 6.0----29.86- 39.4 46.4 36.1---
2024-04-15 06:48 am NW 2.9 5.1----29.87- 39.4 46.4 36.3---
2024-04-15 06:42 am NW 2.9 5.1----29.86- 39.4 46.4 36.3---
2024-04-15 06:36 am NW 1.9 5.1----29.86- 39.6 46.4 36.5---
2024-04-15 06:30 am NW 2.9 6.0----29.86- 39.6 46.4 36.7---
2024-04-15 06:24 am NW 4.1 5.1----29.86- 39.6 46.4 36.9---
2024-04-15 06:18 am NW 2.9 6.0----29.85- 39.6 46.4 36.9---
2024-04-15 06:12 am NW 2.9 5.1----29.85- 39.4 46.4 36.7---
2024-04-15 06:06 am NW 5.1 7.0----29.85- 39.6 46.4 37.0---
2024-04-15 06:00 am NW 5.1 7.0----29.85+0.04 39.4 46.6 36.7---
2024-04-15 05:54 am NW 4.1 5.1----29.85- 39.4 46.6 36.7---
2024-04-15 05:48 amWNW 1.9 5.1----29.84- 39.6 46.6 36.9---
2024-04-15 05:42 am NW 4.1 6.0----29.84- 39.6 46.6 36.7---
2024-04-15 05:36 am NW 2.9 5.1----29.84- 39.6 46.6 36.7---
2024-04-15 05:30 am NW 2.9 4.1----29.83- 39.7 46.4 36.9---
2024-04-15 05:24 am NW 2.9 6.0----29.83- 39.7 46.4 36.7---
2024-04-15 05:18 am NW 5.1 6.0----29.83- 39.7 46.4 36.7---
2024-04-15 05:12 am NW 4.1 5.1----29.83- 39.9 46.4 36.9---
2024-04-15 05:06 am NW 1.9 4.1----29.83- 39.9 46.4 36.7---
2024-04-15 05:00 amNNW 2.9 4.1----29.83+0.02 40.1 46.4 36.7---
2024-04-15 04:54 am NW 2.9 5.1----29.83- 40.3 46.4 36.9---
2024-04-15 04:48 am NW 5.1 6.0----29.83- 40.3 46.4 36.9---
2024-04-15 04:42 am NW 5.1 7.0----29.83- 40.3 46.4 36.9---
2024-04-15 04:36 am NW 2.9 6.0----29.83- 40.3 46.4 36.9---
2024-04-15 04:30 am NW 2.9 6.0----29.83- 40.1 46.4 36.7---
2024-04-15 04:24 am NW 5.1 7.0----29.83- 40.1 46.4 36.7---
2024-04-15 04:18 am NW 2.9 5.1----29.82- 40.1 46.4 36.7---
2024-04-15 04:12 amWNW 2.9 5.1----29.82- 40.1 46.4 36.5---
2024-04-15 04:06 amWNW 2.9 5.1----29.82- 40.1 46.6 36.5---
2024-04-15 04:00 amWNW 2.9 6.0----29.82+0.01 40.1 46.6 36.5---
2024-04-15 03:54 amWNW 4.1 5.1----29.81- 40.1 46.9 36.3---
2024-04-15 03:48 amWNW 2.9 5.1----29.81- 40.1 46.8 36.3---
2024-04-15 03:42 amWNW 2.9 4.1----29.81- 40.1 46.6 36.3---
2024-04-15 03:36 amWNW 2.9 4.1----29.81- 40.5 46.4 36.5---
2024-04-15 03:30 am NW 2.9 4.1----29.81- 40.5 46.4 36.5---
2024-04-15 03:24 amWNW 1.9 5.1----29.81- 40.6 46.4 36.5---
2024-04-15 03:18 am NW 2.9 5.1----29.81- 40.8 46.4 36.7---
2024-04-15 03:12 am NW 4.1 6.0----29.81- 40.8 46.4 36.7---
2024-04-15 03:06 am NW 4.1 6.0----29.81- 41.0 46.4 36.7---
2024-04-15 03:00 am NW 5.1 7.0----29.81+0.01 41.2 46.4 36.7---
2024-04-15 02:54 am NW 5.1 7.0----29.81- 41.4 46.4 36.7---
2024-04-15 02:48 am NW 5.1 7.0----29.81- 41.5 46.4 36.7---
2024-04-15 02:42 amNNW 4.1 7.0----29.81- 41.5 46.4 36.3---
2024-04-15 02:36 am NW 4.1 8.0----29.81- 41.7 46.4 36.5---
2024-04-15 02:30 am NW 5.1 8.0----29.81- 41.9 46.4 36.5---
2024-04-15 02:24 am NW 4.1 5.1----29.81- 41.7 46.4 36.1---
2024-04-15 02:18 amNNW 2.9 6.0----29.80- 41.9 46.4 36.0---
2024-04-15 02:12 am NW 4.1 6.0----29.80- 42.1 46.4 36.1---
2024-04-15 02:06 amNNW 2.9 5.1----29.80- 41.7 46.4 35.6---
2024-04-15 02:00 amNNW 2.9 6.0----29.80+0.03 41.9 46.6 35.4---
2024-04-15 01:54 amNNW 4.1 6.0----29.81- 41.9 46.6 35.4---
2024-04-15 01:48 amNNW 4.1 7.0----29.81- 42.1 46.6 35.6---
2024-04-15 01:42 amNNW 5.1 6.0----29.81- 42.1 46.6 35.4---
2024-04-15 01:36 amNNW 5.1 7.0----29.80- 42.3 46.6 35.4---
2024-04-15 01:30 amNNW 5.1 8.0----29.80- 42.4 46.4 35.6---
2024-04-15 01:24 am N 4.1 8.0----29.80- 42.6 46.4 35.8---
2024-04-15 01:18 amNNW 5.1 8.9----29.80- 42.8 46.4 35.8---
2024-04-15 01:12 amNNW 6.0 11.1----29.80- 43.0 46.4 36.0---
2024-04-15 01:06 am N 6.0 8.0----29.80- 43.0 46.4 36.3---
2024-04-15 01:00 amNNW 6.0 8.9----29.80+0.04 43.0 46.4 36.5---
2024-04-15 12:54 amNNW 6.0 12.0----29.80- 43.2 46.4 36.7---
2024-04-15 12:48 amNNW 8.0 11.1----29.80- 43.3 46.4 36.9---
2024-04-15 12:42 amNNW 6.0 9.9----29.80- 43.5 46.4 36.9---
2024-04-15 12:36 am N 7.0 11.1----29.80- 43.7 46.4 36.9---
2024-04-15 12:30 am N 7.0 9.9----29.80- 43.9 46.4 36.9---
2024-04-15 12:24 amNNW 6.0 8.0----29.80- 43.9 46.4 36.7---
2024-04-15 12:18 am N 5.1 8.0----29.80- 44.1 46.4 36.7---
2024-04-15 12:12 am N 5.1 8.0----29.80- 44.2 46.4 36.9---
2024-04-15 12:06 am N 5.1 9.9----29.79- 44.2 46.4 36.7---
2024-04-15 12:00 am N 7.0 8.9----29.80+0.06 44.4 46.4 36.7---
2024-04-14 11:54 pm N 5.1 8.0----29.79- 44.6 46.6 36.9---
2024-04-14 11:48 pm N 5.1 8.9----29.79- 44.8 46.4 36.9---
2024-04-14 11:42 pm N 5.1 8.0----29.79- 45.0 46.4 37.0---
2024-04-14 11:36 pm N 6.0 8.9----29.79- 45.1 46.9 37.0---
2024-04-14 11:30 pm N 6.0 8.9----29.79- 45.5 46.9 37.4---
2024-04-14 11:24 pm N 7.0 11.1----29.78- 45.7 46.4 37.4---
2024-04-14 11:18 pm N 7.0 8.9----29.78- 45.9 46.6 37.6---
2024-04-14 11:12 pmNNW 6.0 9.9----29.78- 46.0 46.4 37.8---
2024-04-14 11:06 pm N 8.0 11.1----29.78- 46.2 46.4 37.9---
2024-04-14 11:00 pm N 6.0 8.0----29.78+0.05 46.2 46.4 38.5---
2024-04-14 10:54 pm N 6.0 8.0----29.78- 46.4 46.4 38.7---
2024-04-14 10:48 pm N 6.0 8.9----29.78- 46.6 46.4 38.8---
2024-04-14 10:42 pmNNW 7.0 8.9----29.78- 46.8 46.4 39.0---
2024-04-14 10:36 pm N 6.0 8.9----29.78- 46.9 46.4 39.4---
2024-04-14 10:30 pmNNW 5.1 7.0----29.78- 46.9 46.4 39.4---
2024-04-14 10:24 pm N 4.1 6.0----29.78- 47.1 46.4 39.4---
2024-04-14 10:18 pm N 4.1 7.0----29.77- 47.5 46.4 39.7---
2024-04-14 10:12 pm N 4.1 6.0----29.77- 47.7 46.4 39.7---
2024-04-14 10:06 pm N 4.1 8.0----29.76- 47.8 46.4 39.7---
2024-04-14 10:00 pm N 5.1 7.0----29.76+0.05 47.8 46.4 39.7---
2024-04-14 09:54 pm N 4.1 5.1----29.76- 47.8 46.4 40.1---
2024-04-14 09:48 pm N 4.1 5.1----29.76- 48.2 46.4 40.3---
2024-04-14 09:42 pm N 4.1 6.0----29.76- 48.4 46.4 40.3---
2024-04-14 09:36 pm N 4.1 6.0----29.75- 48.4 46.4 40.3---
2024-04-14 09:30 pm N 4.1 6.0----29.75- 48.4 46.4 40.3---
2024-04-14 09:24 pm N 5.1 6.0----29.75- 48.6 46.4 40.5---
2024-04-14 09:18 pm N 4.1 5.1----29.75- 48.7 46.8 40.6---
2024-04-14 09:12 pm N 5.1 6.0----29.74- 48.9 46.8 40.6---
2024-04-14 09:06 pm N 4.1 6.0----29.74- 49.3 46.4 40.8---
2024-04-14 09:00 pmNNE 4.1 7.0----29.73+0.05 49.5 46.4 41.2---
2024-04-14 08:54 pmNNE 5.1 6.0----29.73- 49.8 46.4 41.4---
2024-04-14 08:48 pmNNE 4.1 7.0----29.73-- 46.4----
2024-04-14 08:42 pmNNE 2.9 7.0----29.73-- 46.4----
2024-04-14 08:36 pm N 6.0 8.9----29.73-- 46.4----
2024-04-14 08:30 pm-------29.73- 51.6 46.4 41.0---
2024-04-14 08:24 pm-------29.73- 52.0 46.4 41.0---
2024-04-14 08:18 pm N 7.0 9.9------ 52.3 46.4 41.0---
2024-04-14 08:12 pm N 7.0 9.9------ 52.9 46.9 41.4---
2024-04-14 08:06 pm N 6.0 9.9------ 53.2 46.4 41.9---
2024-04-14 08:00 pm N 6.0 8.9----29.72+0.07 53.8 46.4 42.4---
2024-04-14 07:54 pmNNE 5.1 8.0----29.72- 54.1 46.4 42.8---
2024-04-14 07:48 pmNNE 5.1 8.9----29.72- 54.3 46.4 43.2---
2024-04-14 07:42 pmNNE 5.1 13.0----29.72- 54.9 46.4 43.2---
2024-04-14 07:36 pmNNE 6.0 11.1----29.72- 55.0 46.4 43.3---
2024-04-14 07:30 pmNNE 6.0 12.0----29.72- 55.6 46.4 43.2---
2024-04-14 07:24 pmNNE 6.0 12.0----29.72- 55.8 46.4 43.2---
2024-04-14 07:18 pm N 8.0 15.0----29.72- 56.5 46.4 42.4---
2024-04-14 07:12 pm N 7.0 12.0----29.71- 57.0 46.8 42.6---
2024-04-14 07:06 pm N 8.9 14.0----29.71- 57.0 46.6 43.0---
2024-04-14 07:00 pm N 8.9 13.0----29.71+0.07- 46.4----
2024-04-14 06:54 pm N 7.0 12.0----29.71-- 46.2----
2024-04-14 06:48 pmNNE 6.0 9.9----29.70- 56.8 46.2 44.4---
2024-04-14 06:42 pm N 8.0 12.0----29.70- 57.6 46.2 44.8---
2024-04-14 06:36 pm N 6.0 8.9----29.70- 57.2 46.2 45.1---
2024-04-14 06:30 pmNNE 8.0 14.0----29.70- 56.5 46.2 45.0---
2024-04-14 06:24 pmNNE 8.9 13.0----29.69- 56.3 46.2 44.6---
2024-04-14 06:18 pmNNE 7.0 14.0----29.69- 56.1 46.2 44.6---
2024-04-14 06:12 pm N 11.1 15.0----29.69- 56.3 46.2 44.2---
2024-04-14 06:06 pmNNE 9.9 15.0----29.68- 56.3 46.2 44.1---
2024-04-14 06:00 pm N 9.9 15.0----29.68+0.07 56.3 46.2 43.9---
2024-04-14 05:54 pm N 11.1 15.0----29.68- 56.5 46.2 43.7---
2024-04-14 05:48 pmNNE 9.9 15.0----29.67-- 46.2----
2024-04-14 05:42 pm N 9.9 17.1----29.67-- 46.2----
2024-04-14 05:36 pmNNE 8.9 14.0----29.67-- 46.4----
2024-04-14 05:30 pmNNE 8.9 14.0----29.67-- 46.4----
2024-04-14 05:24 pm N 8.0 14.0----29.66-- 46.4----
2024-04-14 05:18 pm N 8.0 13.0----29.66- 56.1 46.4 44.8---
2024-04-14 05:12 pmNNE 8.9 14.0----29.66- 56.3 46.8 45.0---
2024-04-14 05:06 pmNNE 8.0 13.0----29.65- 56.7 46.4 45.0---
2024-04-14 05:00 pmNNE 9.9 14.0----29.65+0.06 56.5 46.2 44.8---
2024-04-14 04:54 pm N 9.9 13.0----29.65- 56.8 46.2 44.8---
2024-04-14 04:48 pmNNE 8.0 14.0----29.65- 55.8 46.2 44.8---
2024-04-14 04:42 pmNNE 9.9 15.0----29.65- 55.8 46.2 44.6---
2024-04-14 04:36 pmNNE 9.9 15.0----29.65- 56.3 46.2 44.8---
2024-04-14 04:30 pm N 12.0 15.0----29.64- 56.3 46.2 44.8---
2024-04-14 04:24 pmNNE 8.9 15.9----29.64- 56.1 46.2 45.0---
2024-04-14 04:18 pm N 8.9 14.0----29.64- 57.0 46.2 45.3---
2024-04-14 04:12 pmNNE 9.9 15.0----29.64- 56.3 46.2 45.5---
2024-04-14 04:06 pmNNE 6.0 12.0----29.64- 55.2 46.4 45.3---
2024-04-14 04:00 pmNNE 6.0 13.0----29.64+0.06 55.4 46.2 45.3---
2024-04-14 03:54 pm NE 8.9 14.0----29.63- 55.2 46.2 45.5---
2024-04-14 03:48 pm N 11.1 14.0----29.63- 55.0 46.2 45.3---
2024-04-14 03:42 pmNNE 9.9 15.0----29.63- 55.2 46.2 45.7---
2024-04-14 03:36 pmNNE 8.9 14.0----29.63- 55.6 46.2 46.0---
2024-04-14 03:30 pm N 9.9 14.0----29.63- 56.1 46.2 46.2---
2024-04-14 03:18 pm NE 9.9 17.1----29.62- 55.6 46.2 46.4---
2024-04-14 03:12 pmNNE 9.9 15.0----29.62- 55.9 46.4 46.2---
2024-04-14 03:06 pmNNE 9.9 14.0----29.61- 57.2 46.4 47.1---
2024-04-14 03:00 pm NE 8.0 12.0----29.61+0.02------
2024-04-14 02:54 pmNNE 8.0 12.0----29.60-------
2024-04-14 02:48 pmNNE 9.9 13.0----29.60- 58.6 46.2 47.7---
2024-04-14 02:42 pmNNE 8.0 11.1----29.60- 59.5 46.2 48.4---
2024-04-14 02:36 pm NE 6.0 11.1----29.60- 59.4 46.2 48.9---
2024-04-14 02:30 pmENE 5.1 9.9----29.60- 59.4 46.2 49.8---
2024-04-14 02:24 pm E 2.9 5.1----29.60- 56.1 46.2 50.0---
2024-04-14 02:18 pm SE 5.1 7.0----29.59- 54.1 46.2 48.2---
2024-04-14 02:12 pmESE 4.1 6.0----29.59- 52.7 46.2 47.8---
2024-04-14 02:06 pmSSE 2.9 6.0----29.59- 50.2 46.2 46.2---
2024-04-14 02:00 pmSSE 5.1 7.0----29.59+0.00 50.0 46.8 44.6---
2024-04-14 01:54 pmSSE 5.1 8.0----29.59- 52.3 46.9 46.0---
2024-04-14 01:48 pm SE 5.1 8.0----29.59- 51.3 46.2 47.1---
2024-04-14 01:42 pmSSE 6.0 8.9----29.59- 48.0 47.1 43.3---
2024-04-14 01:36 pm S 5.1 8.0----29.59- 47.5 46.8 43.2---
2024-04-14 01:30 pmSSE 6.0 8.0----29.58- 46.4 46.2 42.6---
2024-04-14 01:24 pm S 6.0 8.0----29.58- 46.4 46.2 41.4---
2024-04-14 01:18 pmSSE 6.0 7.0----29.58- 49.5 46.2 42.4---
2024-04-14 01:12 pm S 4.1 6.0----29.58- 53.6 46.2 44.1---
2024-04-14 01:06 pm N 2.9 8.9----29.58- 61.7 46.2 49.6---
2024-04-14 01:00 pm NW 5.1 8.9----29.58+0.00 60.4 46.2 49.1---
2024-04-14 12:54 pmNNW 5.1 9.9----29.58- 60.6 46.2 49.5---